DW5599 Weather Reports


Display with metric or nautical units.
time (UTC)temp
F
wind
direction
speed
MPH
gust
MPH
rain 1hr
in
rain 24hr
in
rain mn
in
humidity
%
barometer
mb
20180817072716 51 32 0.0 2.0 0.00 0.00 0.00 85 1020.8
20180817071004 51 32 0.0 2.0 0.00 0.00 0.00 84 1021.0
20180817065359 51 28 0.0 5.0 0.00 0.00 0.00 84 1021.0
20180817063858 51 28 0.0 3.0 0.00 0.00 0.00 84 1021.1
20180817062653 52 28 0.0 3.0 0.00 0.00 0.00 84 1021.2
20180817060903 52 28 0.0 1.0 0.00 0.00 0.00 85 1021.4
20180817055413 52 28 0.0 1.0 0.00 0.00 0.00 85 1021.5
20180817053814 52 28 0.0 1.0 0.00 0.00 0.00 85 1021.7
20180817052307 52 28 0.0 1.0 0.00 0.00 0.00 84 1021.8
20180817050806 52 28 0.0 2.0 0.00 0.00 0.00 83 1021.9
20180817045304 53 28 0.0 0.0 0.00 0.00 0.00 82 1022.0
20180817043813 53 28 0.0 4.0 0.00 0.00 0.00 81 1021.9
20180817042306 54 20 0.0 1.0 0.00 0.00 0.00 80 1022.0
20180817040757 54 23 0.0 5.0 0.00 0.00 0.00 79 1022.1
20180817035201 55 34 1.0 6.0 0.00 0.00 0.00 79 1022.0
20180817033758 55 44 0.0 5.0 0.00 0.00 0.00 78 1022.0
20180817032211 55 52 0.0 9.0 0.00 0.00 0.00 77 1022.0
20180817030802 56 38 1.0 8.0 0.00 0.00 0.00 76 1022.0
20180817025109 56 53 3.0 10.0 0.00 0.00 0.00 76 1022.0
20180817023803 56 50 2.0 9.0 0.00 0.00 0.00 76 1021.8
20180817022110 56 40 2.0 10.0 0.00 0.00 0.00 76 1022.0
20180817020800 57 28 0.0 12.0 0.00 0.00 0.00 75 1021.8
20180817015110 57 59 2.0 8.0 0.00 0.00 0.00 74 1021.9
20180817013816 58 16 5.0 13.0 0.00 0.00 0.00 73 1021.7
20180817012010 58 17 3.0 10.0 0.00 0.00 0.00 72 1021.8
20180817010505 59 35 2.0 9.0 0.00 0.00 0.00 70 1021.7
20180817005012 59 44 2.0 11.0 0.00 0.00 0.00 69 1021.6
20180817003804 60 51 2.0 11.0 0.00 0.00 0.00 69 1021.6
20180817001953 60 66 4.0 9.0 0.00 0.00 0.00 67 1021.5
20180817000506 61 57 4.0 9.0 0.00 0.00 0.00 65 1021.5
20180816235003 62 48 5.0 10.0 0.00 0.00 0.00 64 1021.6
20180816233418 62 82 5.0 11.0 0.00 0.00 0.00 62 1021.6
20180816231900 63 49 1.0 7.0 0.00 0.00 0.00 62 1021.6
20180816224907 64 49 0.0 7.0 0.00 0.00 0.00 59 1022.0
20180816223331 64 53 0.0 5.0 0.00 0.00 0.00 61 1021.9
20180816221857 64 59 0.0 6.0 0.00 0.00 0.00 60 1021.8
20180816220355 65 50 0.0 4.0 0.00 0.00 0.00 58 1021.7
20180816214816 65 52 0.0 1.0 0.00 0.00 0.00 58 1021.6
20180816213318 66 50 0.0 3.0 0.00 0.00 0.00 57 1021.5
20180816211819 67 52 0.0 6.0 0.00 0.00 0.00 56 1021.6
20180816210317 67 37 1.0 6.0 0.00 0.00 0.00 54 1021.5
20180816204809 68 40 0.0 6.0 0.00 0.00 0.00 52 1021.5
20180816203226 68 44 3.0 10.0 0.00 0.00 0.00 51 1021.7
20180816201805 68 46 2.0 8.0 0.00 0.00 0.00 51 1021.6
20180816200218 68 37 1.0 10.0 0.00 0.00 0.00 50 1021.6
20180816194806 69 51 1.0 7.0 0.00 0.00 0.00 50 1021.6
20180816193217 69 34 2.0 8.0 0.00 0.00 0.00 51 1021.6
20180816191806 69 21 3.0 9.0 0.00 0.00 0.00 50 1021.7
20180816190212 68 65 4.0 9.0 0.00 0.00 0.00 52 1021.9
20180816184804 68 16 4.0 10.0 0.00 0.00 0.00 52 1022.0
20180816183216 68 68 3.0 9.0 0.00 0.00 0.00 53 1022.1
20180816181810 68 78 3.0 9.0 0.00 0.00 0.00 53 1022.3
20180816180206 67 13 3.0 10.0 0.00 0.00 0.00 53 1022.5
20180816174800 67 15 4.0 11.0 0.00 0.00 0.00 53 1022.5
20180816173230 66 63 3.0 14.0 0.00 0.00 0.00 56 1022.6
20180816171533 67 14 2.0 9.0 0.00 0.00 0.00 55 1022.8
20180816170202 66 70 2.0 10.0 0.00 0.00 0.00 56 1023.0
20180816164506 66 24 1.0 11.0 0.00 0.00 0.00 58 1023.3
20180816162920 65 30 4.0 11.0 0.00 0.00 0.00 58 1023.8
20180816161500 65 32 5.0 12.0 0.00 0.00 0.00 59 1024.1
20180816155902 64 5 3.0 10.0 0.00 0.00 0.00 59 1024.3
20180816154412 63 71 3.0 8.0 0.00 0.00 0.00 61 1024.7
20180816152914 62 355 3.0 8.0 0.00 0.00 0.00 62 1024.8
20180816151412 63 16 2.0 9.0 0.00 0.00 0.00 62 1025.1
20180816145903 62 355 4.0 10.0 0.00 0.00 0.00 63 1025.3
20180816144316 61 16 3.0 10.0 0.00 0.00 0.00 66 1025.5
20180816142809 60 355 3.0 10.0 0.00 0.00 0.00 69 1025.6
20180816141307 59 5 2.0 10.0 0.00 0.00 0.00 68 1025.6
20180816135807 59 355 3.0 11.0 0.00 0.00 0.00 71 1025.5
20180816134300 57 348 0.0 10.0 0.00 0.00 0.00 74 1025.5
20180816132711 57 14 3.0 10.0 0.00 0.00 0.00 75 1025.5
20180816131207 55 22 1.0 8.0 0.00 0.00 0.00 78 1025.5
20180816125656 54 40 1.0 8.0 0.00 0.00 0.00 79 1025.3
20180816124214 53 45 1.0 7.0 0.00 0.00 0.00 81 1025.3
20180816122705 52 27 0.0 8.0 0.00 0.00 0.00 81 1025.2
20180816121112 50 49 0.0 4.0 0.00 0.00 0.00 82 1025.2
20180816115657 50 49 1.0 7.0 0.00 0.00 0.00 82 1025.0
20180816114107 49 76 2.0 10.0 0.00 0.00 0.00 84 1024.8
20180816112710 48 76 3.0 8.0 0.00 0.00 0.00 84 1025.0
20180816111105 48 78 0.0 5.0 0.00 0.00 0.00 85 1025.0
20180816105659 48 78 1.0 7.0 0.00 0.00 0.00 85 1025.0
20180816104004 48 78 0.0 5.0 0.00 0.00 0.00 84 1025.0
20180816102711 48 78 0.0 3.0 0.00 0.00 0.00 84 1024.9
20180816101009 48 78 0.0 3.0 0.00 0.00 0.00 84 1024.8
20180816095712 48 78 0.0 2.0 0.00 0.00 0.00 84 1024.7
20180816093955 48 78 0.0 3.0 0.00 0.00 0.00 84 1024.5
20180816092408 48 78 0.0 0.0 0.00 0.00 0.00 83 1024.5
20180816090905 48 78 0.0 2.0 0.00 0.00 0.00 82 1024.5
20180816085404 49 78 0.0 2.0 0.00 0.00 0.00 81 1024.5
20180816083902 49 78 0.0 3.0 0.00 0.00 0.00 80 1024.5
20180816082414 49 78 0.0 7.0 0.00 0.00 0.00 79 1024.5
20180816080910 50 78 0.0 4.0 0.00 0.00 0.00 78 1024.6
20180816075309 50 78 0.0 3.0 0.00 0.00 0.00 78 1024.7
20180816073810 50 78 0.0 0.0 0.00 0.00 0.00 77 1024.9